Location: Middle Street
(51.7167°N, 0.0333°E)
Time: 02:04:54
(UTC+00:00)

Cosmos 1943 - Pass Details

Date: 20 January 2021
Orbit: 834 x 849 km, 71.0° (Epoch: 28 February)

Event Time Altitude Azimuth Distance (km) Brightness Sun altitude
Rises 17:33:38 0° 327° (NNW) 3,421 6.5 -10.0°
Reaches altitude 10° 17:36:08 10° 323° (NW) 2,480 5.9 -10.3°
Maximum altitude 17:41:40 55° 247° (WSW) 1,010 4.1 -11.2°
Drops below altitude 10° 17:47:09 10° 171° (S) 2,454 5.7 -12.0°
Sets 17:49:37 0° 167° (SSE) 3,382 6.4 -12.3°
